Regional Weather Roundup
Issued by NWS

Home | Current Version | Previous Version | Graphics & Text | Print | Product List | Glossary On
Versions: 1 2 3 4 5 6 7 8 9 10 11 12 13 14 15 16 17 18 19 20 21 22 23 24 25 26 27 28 29 30 31 32 33 34 35 36 37 38 39 40 41 42 43 44 45 46 47 48 49 50
000
ASUS45 KCYS 291910
RWRWY

WYOMING REGIONAL WEATHER ROUNDUP
NATIONAL WEATHER SERVICE CHEYENNE WY
100 PM MDT SUN MAR 29 2015

NOTE:  "FAIR" INDICATES FEW OR NO CLOUDS BELOW 12,000 FEET
WITH NO SIGNIFICANT WEATHER AND/OR OBSTRUCTIONS TO VISIBILITY.

WYZ001-292000-
YELLOWSTONE NATIONAL PARK

CITY           SKY/WX    TMP DP  RH WIND       PRES   REMARKS
LK YELLOWSTONE   N/A     42   7  23 VRB6G18   30.31F
W YELLOWSTONE  NOT AVBL

$$
WYZ002>013-054>058-071-098>099-292000-
NORTHERN WYOMING

CITY           SKY/WX    TMP DP  RH WIND       PRES   REMARKS
JACKSON        SUNNY     43  25  49 CALM      30.32F
CODY           FAIR      57  16  19 NE10      30.17F
GREYBULL       FAIR      57  20  23 S12       30.18F
WORLAND        FAIR      58  16  19 VRB6      30.16F
SHERIDAN       FAIR      55  24  30 VRB3      30.15F
BUFFALO        FAIR      55  24  30 VRB5G20   30.15F
GILLETTE       FAIR      56  25  30 SW13G21   30.17F
HULETT         FAIR      55  27  33 NW10      30.17F
NEWCASTLE      FAIR      55  23  28 NW16      30.20F

$$
WYZ014>020-022>026-101>103-292000-
CENTRAL WYOMING

CITY           SKY/WX    TMP DP  RH WIND       PRES   REMARKS
BIG PINEY      FAIR      50   8  18 VRB5      30.32F
PINEDALE       FAIR      46   9  21 W7G17     30.33F
DUBOIS         FAIR      50   1  13 W20G32    30.24F
LANDER         FAIR      55  15  20 VRB3      30.18F
RIVERTON       FAIR      56  13  18 E6        30.19F
CASPER         FAIR      59  18  20 SW17G24   30.20F
DOUGLAS        FAIR      57  22  25 VRB6      30.21F

$$
WYZ021-027>030-104>119-292000-
SOUTHERN WYOMING

CITY           SKY/WX    TMP DP  RH WIND       PRES   REMARKS
EVANSTON       FAIR      54   8  16 SW7       30.32F
KEMMERER       FAIR      52   7  16 W10       30.32F
FORT BRIDGER   FAIR      56   8  14 NW7       30.33F
ROCK SPRINGS   FAIR      52  14  22 W8        30.30F
DIXON          FAIR      57  16  20 SW9       30.32F
RAWLINS        FAIR      54  11  18 W17G24    30.28F
SARATOGA       FAIR      55  10  16 W15G23    30.29F
LARAMIE        FAIR      52  15  23 VRB3      30.26F
CHEYENNE       FAIR      56  13  18 VRB6      30.25F
TORRINGTON     FAIR      59  24  26 N13G21    30.22F
PINE BLUFFS    FAIR      54  21  28 NW12G22   30.26F

$$


USA.gov is the U.S. government's official web portal to all federal, state and local government web resources and services.